This demonstration page uses our WeatherBlox Daily Observations layout. Learn more.

39.92423, -83.80882

Hourly Observations for August 22, 2017

Temp ( °F °C ) Dew Point ( °F °C ) Humidity (%) Winds ( mph kmh ) Pressure ( in mb ) Visibility ( mi km ) Precip ( " mm )
12:56 am 00:56 Clear 74 23.3 69 20.6 85 85 SSW 6 9 30.04 1017 10 16.0934 0 0
1:56 am 01:56 Clear 75 23.9 68 20 79 79 SSW 5 7 30.02 1017 10 16.0934 0 0
2:56 am 02:56 Clear 75 23.9 68 20 79 79 SSW 5 7 30 1016 10 16.0934 0 0
3:56 am 03:56 Clear 75 23.9 68 20 79 79 SSW 7 11 29.98 1015 10 16.0934 0 0
4:56 am 04:56 Clear 74 23.3 68 20 82 82 SSW 9 15 29.96 1015 10 16.0934 0 0
5:56 am 05:56 Clear 73 22.8 68 20 84 84 SSW 8 13 29.96 1015 10 16.0934 0 0
6:56 am 06:56 Sunny 73 22.8 68 20 84 84 SSW 8 13 29.96 1015 10 16.0934 0 0
7:56 am 07:56 Sunny 73 22.8 68 20 84 84 SSW 10 17 29.95 1014 10 16.0934 0 0
8:56 am 08:56 Partly Cloudy 76 24.4 70 21.1 82 82 SW 8 13 29.94 1014 10 16.0934 0 0
9:19 am 09:19 Mostly Cloudy 75 24 70 21 83 83 SSW 12 19 29.94 1014 10 16.0934 0 0
9:56 am 09:56 Cloudy with Rain 75 23.9 71 21.7 88 88 SSW 10 17 29.93 1014 8 12.87472 0.01 0.254
10:37 am 10:37 Mostly Cloudy 77 25 73 23 89 89 SW 8 13 29.88 1012 10 16.0934 0 0.0254
10:47 am 10:47 Cloudy 79 26 73 23 84 84 SW 10 17 29.88 1012 10 16.0934 0 0.0254
10:56 am 10:56 Cloudy 78 25.6 73 22.8 85 85 SW 10 17 29.93 1013 10 16.0934 0 0.0254
11:41 am 11:41 Cloudy with Nearby Thunderstorms 81 27 73 23 79 79 SW 13 20 29.88 1012 10 16.0934 0 0
11:56 am 11:56 Cloudy with Nearby Thunderstorms 74 23.3 69 20.6 85 85 W 14 22 29.94 1014 10 16.0934 0 0.0254
12:03 pm 12:03 Cloudy with Heavy Thunderstorms 72 22 70 21 94 94 W 17 28 29.94 1014 3 4.82802 0.12 3.048
12:18 pm 12:18 Mostly Cloudy with Light Rain 73 23 72 22 94 94 WSW 9 15 29.91 1013 10 16.0934 0.27 6.858
12:51 pm 12:51 Sunny with Nearby Thunderstorms 77 25 72 22 83 83 W 10 17 29.88 1012 10 16.0934 0.27 6.858
12:56 pm 12:56 Sunny with Nearby Thunderstorms 77 25 72 22.2 85 85 W 13 20 29.92 1013 10 16.0934 0.27 6.858
1:06 pm 13:06 Partly Cloudy 77 25 72 22 83 83 W 9 15 29.88 1012 10 16.0934 0 0
1:56 pm 13:56 Cloudy with Light Rain 72 22.2 69 20.6 91 91 W 12 19 29.94 1014 10 16.0934 0.04 1.016
2:56 pm 14:56 Cloudy 73 22.8 69 20.6 87 87 SW 9 15 29.91 1013 10 16.0934 0 0.0254
3:56 pm 15:56 Partly Cloudy 76 24.4 70 21.1 82 82 W 15 24 29.88 1012 10 16.0934 0 0
4:56 pm 16:56 Mostly Cloudy 78 25.6 69 20.6 74 74 W 14 22 29.88 1012 10 16.0934 0 0
5:08 pm 17:08 Cloudy 77 25 68 20 74 74 W 13 20 29.85 1011 10 16.0934 0 0
5:29 pm 17:29 Partly Cloudy 79 26 68 20 70 70 W 15 24 29.85 1011 10 16.0934 0 0
5:56 pm 17:56 Mostly Sunny 79 26.1 69 20.6 72 72 W 14 22 29.88 1012 10 16.0934 0 0
6:56 pm 18:56 Partly Cloudy 78 25.6 67 19.4 69 69 W 13 20 29.88 1012 10 16.0934 0 0
7:56 pm 19:56 Mostly Sunny 76 24.4 67 19.4 74 74 W 8 13 29.89 1012 10 16.0934 0 0
9:56 pm 21:56 Clear 70 21.1 65 18.3 84 84 WNW 6 9 29.92 1013 10 16.0934 0 0
10:56 pm 22:56 Mostly Clear 70 21.1 64 17.8 82 82 NW 8 13 29.93 1013 10 16.0934 0 0
11:56 pm 23:56 Clear 67 19.4 63 17.2 87 87 NW 6 9 29.94 1014 10 16.0934 0 0

Powered by AerisWeather